Terminal Aerodrome Forecast
Issued by NWS La Crosse, WI

Home | Current Version | Previous Version | Text Only | Print | Product List | Glossary On
Versions: 1 2 3 4 5 6 7 8 9 10 11 12 13 14 15 16 17 18 19 20 21 22 23 24 25 26 27 28 29 30 31 32 33 34 35 36 37 38 39 40 41
520
FTUS43 KARX 081720
TAFRST
TAF
KRST 081720Z 0818/0918 32022G28KT 4SM -SHSN BLSN BKN020
     FM090000 33020KT P6SM -SHSN BKN020=

USA.gov is the U.S. government's official web portal to all federal, state and local government web resources and services.